Weather History for KGCM - July, 2013

Change the Weather History Date:

Monday, July 8, 2013

  Actual Average (KTUL) Record (KTUL)
Temperature  
Mean Temperature 80 °F 82 °F  
Max Temperature 93 °F 92 °F 106 °F (1917)
Min Temperature 68 °F 72 °F 60 °F (2006)
Cooling Degree Days 16 17  
Month to date cooling degree days 135  
Year to date cooling degree days 748  
Since 1 June cooling degree days 514  
Growing Degree Days 30 (Base 50)    
Moisture  
Dew Point 67 °F    
Average Humidity 64    
Maximum Humidity 88    
Minimum Humidity 38    
Precipitation  
Precipitation 0.00 in 0.12 in 2.48 in (2010)
Month to date precipitation 0.98  
Year to date precipitation 22.20  
Sea Level Pressure  
Sea Level Pressure 30.07 in    
Wind  
Wind Speed 7 mph (SSE)    
Max Wind Speed 15 mph    
Max Gust Speed 24 mph    
Visibility 10 miles    
Events      
T = Trace of Precipitation, MM = Missing Value Source: NWS Daily Summary

Daily Weather History Graph

Daily Weather History Graph

Search for Another Location

Airport or City:

Trip Planner

Search our weather history database for the weather conditions in past years. The results will help you decide how hot, cold, wet, or windy it might be!

Date:

Astronomy

Jul. 08, 2013 Rise Set
Actual Time 6:11 AM CDT 8:42 PM CDT
Civil Twilight 5:41 AM CDT 9:12 PM CDT
Nautical Twilight 5:04 AM CDT 9:49 PM CDT
Astronomical Twilight 4:23 AM CDT 10:30 PM CDT
Moon 6:39 AM CDT (7/8) 8:48 PM CDT (7/8)
Length of Visible Light 15h 30m
Length of Day
14h 30m
New Moon, 0% of the Moon is Illuminated
Jul 8
New Moon
Jul 15
First Quarter
Jul 22
Full
Jul 29
Last Quarter
Aug 6
New

Hourly Weather History & Observations

Time (CDT) Temp. Heat Index Dew Point Humidity Pressure Visibility Wind Dir Wind Speed Gust Speed Precip Events Conditions
12:15 AM 77.0 °F - 64.4 °F 65% 30.05 in 10.0 mi SE 5.8 mph - N/A   Clear
12:35 AM 75.2 °F - 64.4 °F 69% 30.05 in 10.0 mi SE 5.8 mph - N/A   Clear
12:55 AM 75.2 °F - 64.4 °F 69% 30.06 in 10.0 mi SE 5.8 mph - N/A   Clear
1:15 AM 73.4 °F - 64.4 °F 73% 30.05 in 10.0 mi SSE 4.6 mph - N/A   Clear
1:35 AM 73.4 °F - 64.4 °F 73% 30.05 in 10.0 mi SE 5.8 mph - N/A   Clear
1:55 AM 73.4 °F - 64.4 °F 73% 30.05 in 10.0 mi SE 5.8 mph - N/A   Clear
2:15 AM 71.6 °F - 64.4 °F 78% 30.05 in 10.0 mi SSE 4.6 mph - N/A   Clear
2:35 AM 71.6 °F - 64.4 °F 78% 30.05 in 10.0 mi SSE 5.8 mph - N/A   Clear
2:55 AM 71.6 °F - 64.4 °F 78% 30.05 in 10.0 mi SE 4.6 mph - N/A   Clear
3:15 AM 71.6 °F - 64.4 °F 78% 30.06 in 10.0 mi SE 3.5 mph - N/A   Clear
3:35 AM 71.6 °F - 64.4 °F 78% 30.06 in 10.0 mi SE 4.6 mph - N/A   Clear
3:55 AM 71.6 °F - 64.4 °F 78% 30.06 in 10.0 mi Calm Calm - N/A   Clear
4:15 AM 69.8 °F - 64.4 °F 83% 30.06 in 10.0 mi Calm Calm - N/A   Clear
4:35 AM 68.0 °F - 64.4 °F 88% 30.07 in 10.0 mi Calm Calm - N/A   Clear
4:55 AM 69.8 °F - 64.4 °F 83% 30.07 in 10.0 mi SE 5.8 mph - N/A   Clear
5:15 AM 69.8 °F - 64.4 °F 83% 30.07 in 10.0 mi SE 8.1 mph - N/A   Clear
5:35 AM 69.8 °F - 64.4 °F 83% 30.07 in 10.0 mi SE 5.8 mph - N/A   Clear
5:55 AM 69.8 °F - 64.4 °F 83% 30.07 in 10.0 mi SE 5.8 mph - N/A   Clear
6:15 AM 69.8 °F - 64.4 °F 83% 30.07 in 10.0 mi SSE 4.6 mph - N/A   Clear
6:35 AM 69.8 °F - 64.4 °F 83% 30.07 in 10.0 mi SSE 4.6 mph - N/A   Clear
6:55 AM 69.8 °F - 64.4 °F 83% 30.08 in 10.0 mi SSE 4.6 mph - N/A   Clear
7:15 AM 71.6 °F - 64.4 °F 78% 30.08 in 10.0 mi Calm Calm - N/A   Clear
7:35 AM 73.4 °F - 66.2 °F 78% 30.08 in 10.0 mi SE 5.8 mph - N/A   Clear
7:55 AM 75.2 °F - 66.2 °F 73% 30.09 in 10.0 mi SSE 8.1 mph - N/A   Clear
8:15 AM 77.0 °F - 68.0 °F 74% 30.10 in 10.0 mi South 9.2 mph - N/A   Clear
8:35 AM 78.8 °F - 68.0 °F 69% 30.10 in 10.0 mi South 8.1 mph - N/A   Clear
8:55 AM 78.8 °F - 68.0 °F 69% 30.11 in 10.0 mi South 6.9 mph - N/A   Clear
9:15 AM 80.6 °F 83.9 °F 69.8 °F 70% 30.11 in 10.0 mi SSW 11.5 mph - N/A   Clear
9:35 AM 82.4 °F 86.3 °F 69.8 °F 66% 30.11 in 10.0 mi South 8.1 mph - N/A   Clear
9:55 AM 82.4 °F 86.3 °F 69.8 °F 66% 30.12 in 10.0 mi South 11.5 mph - N/A   Clear
10:15 AM 82.4 °F 86.3 °F 69.8 °F 66% 30.11 in 10.0 mi SSW 9.2 mph - N/A   Clear
10:35 AM 84.2 °F 88.4 °F 69.8 °F 62% 30.11 in 10.0 mi South 10.4 mph - N/A   Clear
10:55 AM 86.0 °F 90.4 °F 69.8 °F 58% 30.11 in 10.0 mi South 10.4 mph - N/A   Clear
11:15 AM 87.8 °F 93.8 °F 71.6 °F 58% 30.11 in 10.0 mi SSW 10.4 mph 16.1 mph N/A   Clear
11:35 AM 87.8 °F 92.6 °F 69.8 °F 55% 30.11 in 10.0 mi South 12.7 mph - N/A   Clear
11:55 AM 87.8 °F 93.8 °F 71.6 °F 58% 30.11 in 10.0 mi SSW 12.7 mph 24.2 mph N/A   Clear
12:15 PM 89.6 °F 96.2 °F 71.6 °F 55% 30.11 in 10.0 mi South 11.5 mph 18.4 mph N/A   Scattered Clouds
12:35 PM 89.6 °F 96.2 °F 71.6 °F 55% 30.10 in 10.0 mi SW 9.2 mph - N/A   Scattered Clouds
12:55 PM 89.6 °F 94.7 °F 69.8 °F 52% 30.10 in 10.0 mi South 10.4 mph 18.4 mph N/A   Scattered Clouds
1:15 PM 89.6 °F 94.7 °F 69.8 °F 52% 30.10 in 10.0 mi SSW 13.8 mph 18.4 mph N/A   Scattered Clouds
1:35 PM 91.4 °F 96.8 °F 69.8 °F 49% 30.09 in 10.0 mi SSW 12.7 mph - N/A   Clear
1:55 PM 89.6 °F 94.7 °F 69.8 °F 52% 30.08 in 10.0 mi South 12.7 mph 18.4 mph N/A   Scattered Clouds
2:15 PM 91.4 °F 96.8 °F 69.8 °F 49% 30.08 in 10.0 mi SSW 15.0 mph 18.4 mph N/A   Scattered Clouds
2:35 PM 91.4 °F 96.8 °F 69.8 °F 49% 30.08 in 10.0 mi South 10.4 mph - N/A   Scattered Clouds
2:55 PM 89.6 °F 94.7 °F 69.8 °F 52% 30.07 in 10.0 mi SSW 9.2 mph 21.9 mph N/A   Scattered Clouds
3:15 PM 89.6 °F 94.7 °F 69.8 °F 52% 30.07 in 10.0 mi SSW 12.7 mph 17.3 mph N/A   Scattered Clouds
3:35 PM 91.4 °F 96.8 °F 69.8 °F 49% 30.07 in 10.0 mi SSW 9.2 mph 17.3 mph N/A   Scattered Clouds
3:55 PM 91.4 °F 95.4 °F 68.0 °F 46% 30.07 in 10.0 mi South 11.5 mph 17.3 mph N/A   Scattered Clouds
4:15 PM 91.4 °F 95.4 °F 68.0 °F 46% 30.06 in 10.0 mi South 8.1 mph - N/A   Clear
4:35 PM 93.2 °F 97.7 °F 68.0 °F 44% 30.06 in 10.0 mi SSW 12.7 mph 17.3 mph N/A   Clear
4:55 PM 93.2 °F 96.2 °F 66.2 °F 41% 30.06 in 10.0 mi South 11.5 mph 17.3 mph N/A   Clear
5:15 PM 91.4 °F 94.0 °F 66.2 °F 43% 30.05 in 10.0 mi South 13.8 mph 18.4 mph N/A   Clear
5:35 PM 91.4 °F 94.0 °F 66.2 °F 43% 30.05 in 10.0 mi South 12.7 mph 18.4 mph N/A   Clear
5:55 PM 91.4 °F 93.2 °F 64.4 °F 41% 30.05 in 10.0 mi South 11.5 mph 16.1 mph N/A   Clear
6:15 PM 91.4 °F 92.1 °F 62.6 °F 38% 30.04 in 10.0 mi South 10.4 mph - N/A   Clear
6:35 PM 91.4 °F 93.2 °F 64.4 °F 41% 30.04 in 10.0 mi SSW 11.5 mph - N/A   Clear
6:55 PM 91.4 °F 93.2 °F 64.4 °F 41% 30.04 in 10.0 mi South 8.1 mph - N/A   Clear
7:15 PM 89.6 °F 91.1 °F 64.4 °F 43% 30.03 in 10.0 mi SSW 9.2 mph - N/A   Clear
7:35 PM 89.6 °F 93.4 °F 68.0 °F 49% 30.03 in 10.0 mi South 10.4 mph - N/A   Clear
7:55 PM 87.8 °F 91.4 °F 68.0 °F 52% 30.04 in 10.0 mi South 8.1 mph - N/A   Clear
8:15 PM 87.8 °F 91.4 °F 68.0 °F 52% 30.04 in 10.0 mi South 6.9 mph - N/A   Clear
8:35 PM 86.0 °F 89.4 °F 68.0 °F 55% 30.04 in 10.0 mi SSE 5.8 mph - N/A   Clear
8:55 PM 82.4 °F 85.4 °F 68.0 °F 62% 30.05 in 10.0 mi SSE 4.6 mph - N/A   Clear
9:15 PM 80.6 °F 83.2 °F 68.0 °F 65% 30.04 in 10.0 mi SSE 5.8 mph - N/A   Clear
9:35 PM 80.6 °F 83.2 °F 68.0 °F 65% 30.05 in 10.0 mi SSE 5.8 mph - N/A   Clear
9:55 PM 78.8 °F - 69.8 °F 74% 30.06 in 10.0 mi SSE 5.8 mph - N/A   Clear
10:15 PM 78.8 °F - 69.8 °F 74% 30.06 in 10.0 mi SSE 4.6 mph - N/A   Clear
10:35 PM 78.8 °F - 69.8 °F 74% 30.07 in 10.0 mi SE 4.6 mph - N/A   Clear
10:55 PM 78.8 °F - 69.8 °F 74% 30.07 in 10.0 mi SE 4.6 mph - N/A   Clear
11:15 PM 77.0 °F - 69.8 °F 78% 30.07 in 10.0 mi SE 4.6 mph - N/A   Clear
11:35 PM 77.0 °F - 69.8 °F 78% 30.07 in 10.0 mi SSE 4.6 mph - N/A   Clear
11:55 PM 77.0 °F - 69.8 °F 78% 30.07 in 10.0 mi SE 4.6 mph - N/A   Clear